Muskogee, OK

1:38 PM CDT on March 28, 2017 (GMT -0500)
Davis

Weather History for KMKO - October, 2011

Change the Weather History Date:

Thursday, October 13, 2011

  Actual Average Record
Temperature  
Mean Temperature 65 °F -  
Max Temperature 78 °F 72 °F 86 °F (1999)
Min Temperature 52 °F 48 °F 34 °F (2006)
Growing Degree Days 15 (Base 50)    
Moisture  
Dew Point 43 °F    
Average Humidity 50    
Maximum Humidity 83    
Minimum Humidity 22    
Precipitation  
Precipitation 0.00 in - - ()
Sea Level Pressure  
Sea Level Pressure 29.89 in    
Wind  
Wind Speed 9 mph (WNW)    
Max Wind Speed 16 mph    
Max Gust Speed 24 mph    
Visibility 6 miles    
Events      
Averages and records for this station are not official NWS values.
T = Trace of Precipitation, MM = Missing Value Source: NWS Daily Summary

Daily Weather History Graph

Daily Weather History Graph

Search for Another Location

Airport or City:

Trip Planner

Search our weather history database for the weather conditions in past years. The results will help you decide how hot, cold, wet, or windy it might be!

Date:

Astronomy

Oct. 13, 2011 Rise Set
Actual Time 7:26 AM CDT 6:48 PM CDT
Civil Twilight 7:00 AM CDT 7:14 PM CDT
Nautical Twilight 6:30 AM CDT 7:44 PM CDT
Astronomical Twilight 6:01 AM CDT 8:13 PM CDT
Moon 7:30 PM CDT (10/13) 8:53 AM CDT (10/13)
Length of Visible Light 12h 14m
Length of Day
11h 22m
Full, 98% of the Moon is Illuminated
Oct 13
Full
Oct 19
Last Quarter
Oct 26
New
Nov 2
First Quarter
Nov 10
Full

Hourly Weather History & Observations

Time (CDT) Temp. Dew Point Humidity Pressure Visibility Wind Dir Wind Speed Gust Speed Precip Events Conditions
12:53 AM 64.9 °F 48.9 °F 56% 29.82 in 10.0 mi NW 10.4 mph - N/A   Clear
1:53 AM 64.0 °F 48.0 °F 56% 29.82 in 10.0 mi NW 11.5 mph - N/A   Clear
2:53 AM 62.1 °F 48.0 °F 60% 29.83 in 10.0 mi NW 10.4 mph - N/A   Clear
3:53 AM 60.1 °F 48.0 °F 64% 29.84 in 10.0 mi WNW 9.2 mph - N/A   Clear
4:53 AM 57.9 °F 46.9 °F 67% 29.86 in 10.0 mi NW 10.4 mph - N/A   Clear
5:53 AM 55.0 °F 46.9 °F 74% 29.88 in 10.0 mi WNW 9.2 mph - N/A   Clear
6:53 AM 52.0 °F 46.9 °F 83% 29.88 in 10.0 mi WNW 6.9 mph - N/A   Clear
7:53 AM 52.0 °F 46.9 °F 83% 29.91 in 10.0 mi WNW 3.5 mph - N/A   Clear
9:53 AM 64.0 °F 45.0 °F 50% 29.95 in 10.0 mi NW 12.7 mph - N/A   Clear
11:53 AM 72.0 °F 46.0 °F 40% 29.94 in 10.0 mi NW 10.4 mph - N/A   Clear
12:53 PM 75.0 °F 42.1 °F 31% 29.93 in 10.0 mi NW 16.1 mph 24.2 mph N/A   Clear
1:53 PM 77.0 °F 42.1 °F 29% 29.91 in 10.0 mi WNW 10.4 mph 21.9 mph N/A   Clear
2:53 PM 77.0 °F 37.9 °F 24% 29.88 in 10.0 mi NW 12.7 mph 24.2 mph N/A   Clear
3:53 PM 78.1 °F 36.0 °F 22% 29.86 in 10.0 mi NNW 11.5 mph 21.9 mph N/A   Clear
4:53 PM 77.0 °F 36.0 °F 23% 29.85 in 6.0 mi NNW 10.4 mph - N/A   Haze
5:53 PM 75.0 °F 36.0 °F 24% 29.85 in 10.0 mi NW 9.2 mph - N/A   Clear
6:38 PM 69.8 °F 39.2 °F 33% 29.86 in 1.8 mi WNW 5.8 mph - N/A   Haze
6:51 PM 66.2 °F 39.2 °F 37% 29.86 in 1.2 mi West 5.8 mph - N/A   Haze
7:07 PM 64.4 °F 39.2 °F 40% 29.87 in 2.0 mi West 5.8 mph - N/A   Haze
7:53 PM 62.1 °F 41.0 °F 46% 29.88 in 2.0 mi West 8.1 mph - N/A   Haze
8:53 PM 59.0 °F 41.0 °F 51% 29.89 in 2.0 mi West 8.1 mph - N/A   Haze
9:08 PM 59.0 °F 41.0 °F 51% 29.90 in 1.8 mi West 8.1 mph - N/A   Haze
9:40 PM 57.2 °F 41.0 °F 55% 29.91 in 1.2 mi West 6.9 mph - N/A   Haze
9:53 PM 57.0 °F 42.1 °F 57% 29.91 in 1.2 mi West 6.9 mph - N/A   Haze
10:04 PM 57.2 °F 42.8 °F 59% 29.92 in 2.0 mi West 6.9 mph - N/A   Haze
10:17 PM 59.0 °F 41.0 °F 51% 29.92 in 1.8 mi West 8.1 mph - N/A   Haze
10:47 PM 57.2 °F 42.8 °F 59% 29.93 in 3.0 mi West 6.9 mph - N/A   Haze
10:48 PM 57.0 °F 42.1 °F 57% 29.92 in 3.0 mi West 6.9 mph - N/A   Haze
10:59 PM 57.2 °F 42.8 °F 59% 29.93 in 2.0 mi West 5.8 mph - N/A   Haze
11:19 PM 55.4 °F 42.8 °F 63% 29.93 in 6.0 mi WNW 4.6 mph - N/A   Haze
11:53 PM 57.0 °F 41.0 °F 55% 29.92 in 6.0 mi Calm Calm - N/A   Haze